When you browse on this site, cookies collect data to enhance your experience and personalize the content and advertising you see.
Visit our Privacy Policy to learn more. By continuing to use the site, you agree to this use of cookies and data.
  • In Hungary
  • List of Countries
  • For 7 days
  • Water Temperature
  • Weather Map
  • News
  • Weather Widgets
  • user-avatar
    Login

    Hourly Weather Mokryavicy

    Today, 24 January, Friday

    Time Temperature Precipitation Wind Pressure Humidity
    00:00 -7°C° 0 mm 3 mps 743 mmHg 82%
    01:00 -7°C° 0 mm 3 mps 743 mmHg 83%
    02:00 -7°C° 0 mm 3 mps 743 mmHg 83%
    03:00 -7°C° 0 mm 4 mps 742 mmHg 86%
    04:00 -7°C° 0 mm 4 mps 741 mmHg 89%
    05:00 -7°C° 0 mm 5 mps 740 mmHg 92%
    06:00 -6°C° 0.2 mm 5 mps 739 mmHg 93%
    07:00 -6°C° 0.2 mm 5 mps 738 mmHg 94%
    08:00 -5°C° 0.2 mm 6 mps 738 mmHg 94%
    09:00 -4°C° 0.2 mm 6 mps 737 mmHg 92%
    10:00 -4°C° 0.2 mm 6 mps 736 mmHg 90%
    11:00 -3°C° 0.2 mm 6 mps 735 mmHg 87%
    12:00 -2°C° 0.1 mm 5 mps 735 mmHg 90%
    13:00 -1°C° 0.1 mm 5 mps 734 mmHg 93%
    14:00 -1°C° 0.1 mm 5 mps 734 mmHg 96%
    15:00 -1°C° 0.6 mm 4 mps 734 mmHg 97%
    16:00 -1°C° 0.6 mm 4 mps 733 mmHg 97%
    17:00 -1°C° 0.6 mm 4 mps 733 mmHg 97%
    18:00 -1°C° 0.1 mm 5 mps 733 mmHg 92%
    19:00 -1°C° 0.1 mm 5 mps 734 mmHg 86%
    20:00 -2°C° 0.1 mm 6 mps 734 mmHg 81%
    21:00 -2°C° 0 mm 5 mps 734 mmHg 83%
    22:00 -4°C° 0 mm 5 mps 734 mmHg 85%
    23:00 -4°C° 0 mm 4 mps 735 mmHg 88%

    Tomorrow, 25 January, Saturday

    Time Temperature Precipitation Wind Pressure Humidity
    00:00 -4°C° 0 mm 4 mps 734 mmHg 89%
    01:00 -4°C° 0 mm 4 mps 734 mmHg 90%
    02:00 -4°C° 0 mm 4 mps 734 mmHg 91%
    03:00 -4°C° 0 mm 4 mps 734 mmHg 91%
    04:00 -4°C° 0 mm 5 mps 733 mmHg 90%
    05:00 -4°C° 0 mm 5 mps 733 mmHg 90%
    06:00 -4°C° 0 mm 5 mps 732 mmHg 89%
    07:00 -2°C° 0 mm 4 mps 732 mmHg 88%
    08:00 -2°C° 0 mm 4 mps 732 mmHg 87%
    09:00 -2°C° 0.1 mm 5 mps 731 mmHg 89%
    10:00 -2°C° 0.1 mm 5 mps 731 mmHg 91%
    11:00 -3°C° 0.1 mm 6 mps 730 mmHg 92%
    12:00 -3°C° 0.2 mm 6 mps 730 mmHg 85%
    13:00 -3°C° 0.2 mm 6 mps 730 mmHg 78%
    14:00 -3°C° 0.2 mm 6 mps 730 mmHg 72%
    15:00 -4°C° 0 mm 6 mps 730 mmHg 73%
    16:00 -4°C° 0 mm 6 mps 731 mmHg 75%
    17:00 -5°C° 0 mm 6 mps 731 mmHg 77%
    18:00 -5°C° 0 mm 6 mps 732 mmHg 79%
    19:00 -5°C° 0 mm 6 mps 732 mmHg 80%
    20:00 -6°C° 0 mm 6 mps 733 mmHg 82%
    21:00 -6°C° 0 mm 7 mps 733 mmHg 81%
    22:00 -6°C° 0 mm 7 mps 734 mmHg 80%
    23:00 -6°C° 0 mm 7 mps 735 mmHg 80%

    Day after tomorrow, 26 January, Sunday

    Time Temperature Precipitation Wind Pressure Humidity
    00:00 -6°C° 0 mm 6 mps 735 mmHg 81%
    01:00 -6°C° 0 mm 6 mps 736 mmHg 83%
    02:00 -6°C° 0 mm 6 mps 737 mmHg 84%
    03:00 -6°C° 0 mm 6 mps 738 mmHg 84%
    04:00 -6°C° 0 mm 6 mps 739 mmHg 84%
    05:00 -6°C° 0 mm 6 mps 740 mmHg 83%
    06:00 -8°C° 0 mm 6 mps 741 mmHg 84%
    07:00 -7°C° 0 mm 5 mps 741 mmHg 84%
    08:00 -7°C° 0 mm 5 mps 742 mmHg 85%
    09:00 -7°C° 0 mm 5 mps 742 mmHg 83%
    10:00 -6°C° 0 mm 5 mps 743 mmHg 80%
    11:00 -6°C° 0 mm 5 mps 743 mmHg 78%
    12:00 -6°C° 0 mm 5 mps 743 mmHg 79%
    13:00 -5°C° 0 mm 5 mps 743 mmHg 79%
    14:00 -5°C° 0 mm 5 mps 743 mmHg 79%
    15:00 -4°C° 0 mm 4 mps 743 mmHg 82%
    16:00 -4°C° 0 mm 4 mps 743 mmHg 84%
    17:00 -4°C° 0 mm 4 mps 743 mmHg 86%
    18:00 -4°C° 0.4 mm 3 mps 743 mmHg 90%
    19:00 -3°C° 0.4 mm 2 mps 742 mmHg 93%
    20:00 -3°C° 0.4 mm 2 mps 742 mmHg 97%
    21:00 -2°C° 0.6 mm 2 mps 741 mmHg 97%
    22:00 -2°C° 0.6 mm 2 mps 741 mmHg 97%
    23:00 -1°C° 0.6 mm 3 mps 741 mmHg 97%

    27 January, Monday

    Time Temperature Precipitation Wind Pressure Humidity
    00:00 0°C° 0.3 mm 3 mps 741 mmHg 97%
    01:00 -1°C° 0.3 mm 4 mps 741 mmHg 97%
    02:00 0°C° 0.3 mm 4 mps 741 mmHg 97%
    03:00 0°C° 0.3 mm 4 mps 741 mmHg 97%
    04:00 0°C° 0.3 mm 4 mps 741 mmHg 97%
    05:00 +1°C° 0.3 mm 3 mps 741 mmHg 97%
    06:00 0°C° 0.4 mm 3 mps 742 mmHg 98%
    07:00 +1°C° 0.4 mm 2 mps 742 mmHg 98%
    08:00 +2°C° 0.4 mm 1 mps 742 mmHg 98%
    09:00 +2°C° 0.4 mm 1 mps 742 mmHg 98%
    10:00 +2°C° 0.4 mm 1 mps 743 mmHg 98%
    11:00 +2°C° 0.4 mm 1 mps 743 mmHg 98%
    12:00 +2°C° 0.3 mm 1 mps 743 mmHg 98%
    13:00 +1°C° 0.3 mm 2 mps 743 mmHg 98%
    14:00 +2°C° 0.3 mm 2 mps 743 mmHg 98%
    15:00 +1°C° 0.2 mm 3 mps 743 mmHg 98%
    16:00 +1°C° 0.2 mm 3 mps 743 mmHg 98%
    17:00 +1°C° 0.2 mm 3 mps 743 mmHg 98%
    18:00 0°C° 0.1 mm 3 mps 743 mmHg 98%
    19:00 +1°C° 0.1 mm 2 mps 743 mmHg 98%
    20:00 +1°C° 0.1 mm 2 mps 744 mmHg 98%
    21:00 +1°C° 0.1 mm 2 mps 744 mmHg 98%
    22:00 +1°C° 0.1 mm 2 mps 744 mmHg 98%
    23:00 +2°C° 0.1 mm 1 mps 744 mmHg 98%

    28 January, Tuesday

    Time Temperature Precipitation Wind Pressure Humidity
    00:00 +2°C° 0 mm 1 mps 744 mmHg 98%
    01:00 +2°C° 0 mm 1 mps 743 mmHg 98%
    02:00 +2°C° 0 mm 1 mps 743 mmHg 98%
    03:00 +2°C° 0 mm 1 mps 743 mmHg 98%
    04:00 +2°C° 0 mm 1 mps 744 mmHg 98%
    05:00 +2°C° 0 mm 1 mps 744 mmHg 98%
    06:00 +2°C° 0.1 mm 1 mps 744 mmHg 98%
    07:00 +2°C° 0.1 mm 1 mps 744 mmHg 98%
    08:00 +2°C° 0.1 mm 1 mps 744 mmHg 98%
    09:00 +2°C° 0.1 mm 1 mps 744 mmHg 98%
    10:00 +2°C° 0.1 mm 1 mps 744 mmHg 99%
    11:00 +1°C° 0.1 mm 2 mps 744 mmHg 99%
    12:00 +1°C° 0.1 mm 2 mps 744 mmHg 99%
    13:00 +1°C° 0.1 mm 2 mps 744 mmHg 99%
    14:00 +1°C° 0.1 mm 2 mps 744 mmHg 98%
    15:00 +1°C° 0 mm 2 mps 744 mmHg 98%
    16:00 +1°C° 0 mm 2 mps 744 mmHg 98%
    17:00 +1°C° 0 mm 2 mps 744 mmHg 97%
    18:00 -1°C° 0 mm 3 mps 744 mmHg 97%
    19:00 -1°C° 0 mm 3 mps 744 mmHg 96%
    20:00 -2°C° 0 mm 4 mps 743 mmHg 96%
    21:00 -2°C° 0 mm 4 mps 743 mmHg 96%
    22:00 -2°C° 0 mm 4 mps 743 mmHg 95%
    23:00 -2°C° 0 mm 4 mps 743 mmHg 95%

    29 January, Wednesday

    Time Temperature Precipitation Wind Pressure Humidity
    00:00 -2°C° 0 mm 5 mps 743 mmHg 95%
    01:00 -1°C° 0 mm 5 mps 742 mmHg 95%
    02:00 -1°C° 0 mm 5 mps 742 mmHg 95%
    03:00 -1°C° 0.1 mm 5 mps 741 mmHg 96%
    04:00 -1°C° 0.1 mm 5 mps 741 mmHg 96%
    05:00 -1°C° 0.1 mm 5 mps 741 mmHg 96%
    06:00 -1°C° 0 mm 5 mps 740 mmHg 95%
    07:00 -2°C° 0 mm 6 mps 740 mmHg 94%
    08:00 -2°C° 0 mm 6 mps 739 mmHg 93%
    09:00 -2°C° 0.2 mm 6 mps 739 mmHg 95%
    10:00 -2°C° 0.2 mm 6 mps 739 mmHg 96%
    11:00 -2°C° 0.2 mm 6 mps 739 mmHg 97%
    12:00 -2°C° 0.6 mm 6 mps 738 mmHg 97%
    13:00 -2°C° 0.6 mm 6 mps 737 mmHg 97%
    14:00 -2°C° 0.6 mm 6 mps 737 mmHg 97%
    15:00 -1°C° 0.5 mm 5 mps 737 mmHg 97%
    16:00 -1°C° 0.5 mm 5 mps 737 mmHg 97%
    17:00 -1°C° 0.5 mm 4 mps 737 mmHg 97%
    18:00 -1°C° 0.1 mm 4 mps 737 mmHg 97%
    19:00 0°C° 0.1 mm 3 mps 737 mmHg 96%
    20:00 0°C° 0.1 mm 3 mps 737 mmHg 96%
    21:00 0°C° 0 mm 3 mps 737 mmHg 93%
    22:00 -1°C° 0 mm 4 mps 737 mmHg 91%
    23:00 -1°C° 0 mm 4 mps 737 mmHg 89%
    Show more